sat.trackr.live / text

‹ back to catalog

HIMAWARI-9

NORAD 41836 · 2016-064A

PAYLOAD ACTIVE UNKNOWN

§ Identity

Operator
Country
JPN
Launch date
2016-11-02
Launch site
TANSC
Launch vehicle
Mass (kg)
RCS (m²)
38.79

Purposes: comms, earth_obs

External: N2YO · Heavens-Above · Gunter

§ Orbital elements

Epoch: 2026-09-08T07:57:38.736576Z

Period
1,436.11 min
Inclination
0.0432°
Eccentricity
0.0001390
Mean motion
1.00271048 rev/d
Perigee alt
35,780.9 km
Apogee alt
35,792.7 km
Semi-major
42,164.9 km
B*
0.0000e+0
RAAN
284.2882°
Arg perigee
288.1682°
Mean anomaly
35.0836°
Rev number
3,604

§ Raw data

HIMAWARI-91 41836U 16064A   26251.33169834 -.00000296  00000+0  00000+0 0  99982 41836   0.0432 284.2882 0001390 288.1682  35.0836  1.00271048 36046

JSON: /api/v1/satellites/41836 · /tle

For live sub-satellite position, see the globe view (requires WebGL).

§ Visibility from observer

Set your observer location to see the next 7 days of passes ≥ 10°. The values pass through the URL so the page stays shareable.

No JS? Fill the form by hand. The geolocation button needs JavaScript.